Wind_Speed
12 17 23 17 16 15 13 16 17 13 4 8 7 15 20 22 19 16 17 17 14 12 14 16 19 21 23 23 25 27 25 20 19 21 24 27 32 32 36 37 38 39 38 34
15 19 9 9 11 13 15 19 13 8 9 11 19 26 22 14 12 7 10 13 14 15 15 16 17 18 20 21 22 20 20 19 19 21 24 29 30 33 35 36 37 37 37 35
18 10 6 11 13 16 5 3 8 7 11 16 16 21 15 13 8 7 10 10 13 15 12 14 15 17 18 17 17 18 19 20 21 22 26 29 32 33 33 33 31 31 32 32
19 11 13 14 21 15 10 7 9 2 8 8 12 10 9 10 8 11 10 13 12 11 14 14 15 16 16 17 17 18 19 20 22 26 28 30 32 33 33 31 29 29 29 29
19 10 12 15 9 8 7 7 12 5 7 5 14 8 12 9 9 7 8 8 14 14 14 15 13 13 14 16 18 19 20 23 26 28 28 31 31 32 30 28 27 27 26 28
19 14 16 10 11 6 4 5 10 17 13 1 7 8 19 15 10 7 17 14 11 13 14 13 11 12 15 18 19 21 22 26 29 29 30 30 31 30 29 27 26 26 26 27
14 16 12 13 11 12 9 7 2 4 3 3 5 1 7 15 12 6 5 9 11 13 14 13 14 14 16 19 21 25 29 30 29 30 31 31 31 30 29 28 28 28 28 28
10 16 16 13 10 3 8 9 8 5 5 4 1 6 5 7 6 5 6 9 11 12 14 15 13 14 20 23 27 30 31 31 29 30 30 31 31 29 28 28 28 29 30 31
2 5 4 12 8 7 3 3 3 4 11 8 4 5 5 5 5 4 6 9 9 13 13 13 16 18 22 24 29 29 32 29 29 29 29 30 28 27 28 29 29 30 31 31
3 6 8 3 4 4 3 1 1 1 4 3 2 5 7 14 9 7 7 10 11 11 14 16 18 20 24 26 28 30 29 29 30 30 30 29 28 27 28 29 30 30 31 31
7 6 5 4 6 3 0 3 3 2 4 5 5 3 5 7 6 9 10 11 12 12 14 16 17 20 25 26 28 29 30 29 30 29 28 27 27 28 29 29 30 31 31 32
8 6 4 11 12 4 1 4 5 4 2 2 5 2 5 5 6 9 9 11 11 13 15 16 17 22 25 26 29 27 27 28 28 28 27 27 27 28 29 30 31 31 32 32
12 8 11 11 10 9 9 4 3 2 1 3 5 5 8 5 3 7 8 10 12 14 16 18 18 22 21 25 27 26 27 26 26 25 25 26 27 28 30 31 31 31 32 33
10 7 8 9 6 7 7 3 5 3 2 6 3 17 15 9 4 7 8 10 12 16 18 19 21 19 24 25 25 25 25 26 25 24 25 26 28 30 31 31 31 31 33 34
12 16 16 13 7 4 5 5 4 2 1 3 12 8 8 1 5 6 10 10 16 18 19 20 19 25 24 24 24 24 24 24 23 24 25 27 29 29 30 30 31 32 32 34
12 13 11 9 3 1 3 2 3 4 5 8 12 13 4 3 3 7 11 10 18 20 21 21 23 23 22 22 24 23 22 22 22 23 25 27 27 29 30 31 32 32 33 34
16 18 14 10 11 9 6 2 4 1 4 4 15 6 8 4 3 7 12 13 16 18 18 18 18 19 20 22 22 22 21 21 22 23 24 25 27 28 30 32 33 34 35 35
16 17 8 13 11 2 4 3 5 2 5 6 4 2 3 4 5 6 6 8 13 16 16 15 16 18 20 21 22 22 21 21 22 22 23 24 25 27 30 32 35 37 37 38
16 15 9 7 5 10 8 10 8 5 9 3 4 2 4 6 7 6 6 8 12 14 14 14 15 18 19 22 22 20 20 20 20 21 22 23 24 27 30 33 36 37 38 38
12 13 12 14 5 7 7 14 10 7 8 8 6 5 4 5 6 8 9 10 12 12 11 13 15 18 21 21 20 20 19 19 19 21 21 22 25 27 30 33 35 37 38 38
14 11 14 12 3 3 12 14 13 9 5 10 8 9 8 5 7 9 8 8 8 8 11 14 18 22 22 22 21 19 19 18 20 20 20 22 24 27 30 32 34 35 36 37
14 12 12 12 4 6 20 16 13 10 9 6 8 10 6 7 6 5 5 6 6 9 11 16 22 23 23 22 21 19 18 18 19 20 20 22 24 26 29 31 32 34 36 37
8 16 15 11 11 6 16 14 10 6 2 5 8 6 4 4 3 4 5 6 8 10 14 19 21 23 23 21 19 18 17 18 18 20 21 23 24 26 28 30 32 35 36 38
13 12 11 12 11 10 9 7 4 4 3 3 2 2 2 1 3 4 5 7 9 13 17 19 21 22 21 20 18 18 17 17 18 19 21 22 24 26 28 30 33 35 37 39
15 13 14 12 15 13 10 7 4 4 1 1 2 3 3 3 4 5 6 7 11 14 16 20 22 22 21 20 18 17 17 18 18 19 20 21 24 26 28 31 34 35 37 39
15 15 15 14 9 8 4 8 5 2 1 1 3 4 5 6 6 6 7 9 11 14 18 21 22 21 21 20 18 17 17 18 18 19 20 21 23 25 27 29 31 33 35 36
Wind_Direction
204 221 232 229 236 244 264 276 289 316 233 220 169 145 160 178 204 233 242 258 255 259 268 278 277 285 293 306 313 307 302 308 309 308 312 317 320 322 321 323 323 323 323 324
216 233 205 231 235 261 279 273 282 78 186 177 164 134 146 167 194 232 263 281 297 297 296 293 292 303 311 316 307 302 312 317 312 322 324 321 321 320 324 325 325 324 322 325
215 151 233 264 277 280 264 262 330 350 178 161 181 114 145 153 171 211 231 264 293 298 302 304 317 318 324 315 309 314 321 325 328 323 320 323 324 326 326 326 321 318 320 321
228 209 258 281 279 265 258 278 295 268 187 178 208 128 164 177 222 239 270 294 300 305 312 319 339 331 321 310 315 324 328 330 325 323 325 326 324 326 326 325 324 322 321 320
225 247 271 288 232 232 273 327 259 273 246 208 213 120 172 210 233 265 298 294 321 307 317 339 331 317 317 319 327 332 332 328 328 329 326 327 328 328 328 328 325 323 321 320
253 263 271 295 217 229 284 271 275 275 268 76 187 219 175 201 228 239 305 284 301 314 329 323 327 338 327 329 331 331 331 332 331 330 331 332 332 332 331 329 327 324 323 322
256 255 250 256 260 279 243 267 314 318 40 119 143 91 152 211 224 278 275 299 314 321 318 330 352 343 327 334 331 328 335 338 336 336 336 336 336 335 333 332 330 329 329 328
294 280 249 224 254 209 228 264 225 227 171 165 72 97 179 225 253 266 295 317 314 312 332 342 349 344 339 339 334 341 341 337 338 340 340 338 337 335 335 335 335 334 333 332
341 72 168 186 207 271 209 325 335 195 100 95 95 117 152 200 199 260 302 299 308 330 329 349 358 349 343 338 337 338 341 340 342 342 339 337 338 338 339 338 337 336 333 332
93 129 120 90 131 194 241 348 76 51 134 105 163 192 231 203 214 252 298 315 315 334 352 1 357 346 338 336 338 334 344 345 344 342 340 341 343 342 341 340 338 336 335 333
168 135 130 171 85 103 57 62 36 59 47 143 166 217 214 208 261 289 304 312 334 347 2 359 349 341 336 339 343 338 347 342 342 341 344 345 346 344 342 340 339 338 336 334
196 132 144 113 100 84 128 65 345 46 6 109 139 167 171 252 285 303 304 316 336 358 359 352 348 337 340 341 338 346 344 341 341 345 347 347 347 345 344 343 341 339 338 337
164 145 131 132 117 77 65 29 338 342 232 53 144 172 182 252 283 316 325 342 359 359 358 355 342 342 334 335 347 347 344 343 347 350 350 349 348 348 348 345 344 342 341 342
159 139 152 139 115 125 102 354 343 355 224 135 105 162 186 214 284 344 352 359 5 7 359 350 346 331 331 343 345 345 345 347 351 353 354 351 351 352 350 348 347 347 347 345
133 120 126 120 121 108 81 27 352 338 142 241 164 164 167 219 335 351 352 9 5 4 353 349 337 334 341 343 345 347 348 351 354 356 356 355 356 355 354 352 353 353 350 350
165 135 154 116 154 182 141 61 42 76 105 127 140 139 129 212 291 337 353 3 1 357 348 340 336 340 344 344 348 348 351 355 359 358 358 360 359 359 359 360 359 356 356 355
170 160 152 135 157 147 119 227 222 246 136 158 161 198 208 241 255 346 357 354 346 338 333 335 339 342 345 348 348 353 357 1 1 0 0 3 3 4 6 6 4 3 0 360
180 175 156 151 161 81 163 177 242 220 147 194 223 360 341 313 335 340 337 318 318 328 336 344 349 350 352 350 354 360 1 3 3 1 3 7 4 8 7 7 8 7 4 2
174 172 147 158 132 135 163 219 220 217 162 289 313 328 343 309 301 310 297 315 330 342 349 352 354 357 356 357 1 3 4 5 2 2 7 7 6 8 7 8 8 8 7 4
198 191 198 155 155 193 214 201 221 190 165 198 277 311 315 317 314 320 326 340 344 347 354 2 3 3 4 2 3 6 7 6 2 7 8 8 8 7 7 10 9 8 9 7
191 175 193 180 144 187 180 187 204 210 228 214 244 292 313 301 298 304 325 342 354 6 13 8 6 9 4 4 7 11 11 6 7 8 9 8 8 7 8 8 8 8 10 11
203 181 167 182 143 164 179 188 211 265 253 237 253 283 290 283 286 305 348 12 31 30 20 13 11 6 5 6 10 13 13 9 8 7 10 9 8 6 7 6 6 7 10 12
185 190 182 195 200 194 191 214 257 250 178 209 254 271 257 268 312 5 27 52 48 33 22 18 10 6 7 9 13 16 14 12 9 11 10 9 8 7 6 5 6 7 11 13
168 190 190 171 158 173 191 210 202 160 189 246 251 226 224 9 27 46 67 67 47 32 24 17 13 12 11 13 16 17 15 14 14 12 11 11 11 8 7 7 7 7 10 15
185 190 199 195 184 195 205 202 169 175 209 1 170 157 123 84 65 75 94 65 45 34 23 18 16 14 14 16 19 19 17 17 14 13 10 10 12 10 9 7 8 9 10 14
187 207 220 225 232 212 251 196 177 182 359 29 119 119 107 90 85 109 87 64 45 31 24 20 18 17 18 20 21 22 22 19 16 14 10 10 13 11 11 11 9 11 12 15
Height
3152 3153 3150 3152 3154 3157 3159 3160 3161 3160 3157 3157 3159 3157 3157 3159 3158 3159 3157 3157 3157 3157 3157 3156 3156 3154 3152 3150 3147 3143 3138 3135 3131 3127 3123 3116 3111 3105 3099 3091 3084 3077 3071 3067
3151 3147 3148 3153 3155 3156 3157 3158 3160 3157 3156 3156 3159 3158 3160 3161 3161 3160 3160 3159 3160 3159 3158 3158 3155 3153 3150 3147 3144 3139 3134 3131 3127 3122 3116 3111 3106 3099 3093 3086 3078 3070 3064 3060
3147 3146 3149 3151 3152 3155 3154 3155 3155 3155 3156 3158 3154 3161 3164 3164 3164 3163 3162 3161 3161 3160 3158 3156 3153 3151 3148 3145 3140 3137 3132 3127 3123 3118 3113 3107 3100 3093 3088 3082 3075 3068 3062 3056
3145 3145 3147 3149 3148 3152 3151 3153 3153 3153 3154 3155 3154 3163 3165 3165 3164 3161 3161 3161 3162 3161 3158 3155 3152 3150 3148 3142 3139 3134 3129 3125 3121 3115 3109 3102 3096 3090 3083 3076 3070 3064 3058 3052
3142 3145 3147 3147 3146 3147 3150 3149 3150 3150 3151 3151 3151 3155 3162 3163 3161 3162 3162 3161 3159 3158 3157 3154 3152 3150 3145 3140 3135 3131 3127 3122 3117 3111 3105 3098 3092 3085 3078 3073 3067 3061 3055 3048
3140 3142 3145 3144 3143 3145 3146 3147 3146 3146 3146 3148 3150 3150 3160 3159 3159 3160 3159 3159 3158 3156 3154 3153 3151 3147 3141 3136 3132 3128 3124 3118 3112 3106 3100 3094 3087 3081 3075 3069 3063 3057 3051 3045
3139 3138 3141 3143 3143 3143 3144 3145 3146 3144 3143 3152 3151 3152 3154 3155 3155 3157 3156 3157 3155 3154 3153 3151 3147 3144 3139 3134 3130 3125 3119 3114 3108 3102 3095 3089 3083 3076 3070 3064 3058 3052 3047 3041
3137 3137 3137 3140 3141 3141 3141 3143 3144 3146 3147 3149 3150 3153 3154 3155 3156 3156 3156 3155 3154 3153 3151 3148 3146 3141 3135 3130 3125 3120 3116 3110 3105 3099 3092 3085 3079 3073 3066 3060 3055 3049 3042 3036
3136 3135 3134 3138 3140 3142 3141 3141 3141 3141 3143 3148 3154 3156 3156 3155 3156 3156 3156 3155 3154 3153 3150 3147 3142 3137 3132 3128 3123 3118 3113 3107 3102 3096 3089 3082 3076 3070 3064 3058 3052 3046 3039 3032
3136 3136 3138 3139 3140 3140 3139 3140 3140 3139 3143 3154 3154 3153 3153 3153 3155 3155 3155 3153 3153 3150 3146 3142 3139 3135 3131 3126 3121 3117 3111 3104 3099 3092 3086 3080 3074 3068 3062 3056 3049 3042 3035 3029
3134 3137 3139 3139 3139 3138 3139 3138 3139 3140 3141 3145 3151 3151 3151 3153 3153 3154 3153 3151 3149 3147 3144 3141 3138 3134 3129 3124 3120 3115 3108 3102 3096 3090 3084 3078 3072 3066 3060 3053 3046 3039 3032 3025
3133 3136 3137 3140 3139 3139 3138 3139 3139 3140 3143 3142 3143 3150 3149 3151 3152 3152 3150 3148 3147 3145 3143 3141 3138 3133 3128 3123 3118 3112 3107 3101 3095 3088 3082 3077 3071 3064 3058 3050 3043 3036 3029 3022
3132 3135 3136 3139 3140 3139 3139 3140 3140 3140 3140 3141 3143 3149 3148 3150 3151 3150 3149 3146 3145 3144 3143 3140 3137 3132 3127 3122 3115 3110 3105 3099 3093 3087 3081 3076 3069 3063 3055 3048 3041 3034 3026 3019
3131 3132 3133 3136 3138 3139 3140 3139 3139 3139 3139 3140 3141 3143 3147 3150 3150 3150 3148 3146 3145 3143 3141 3138 3134 3130 3125 3119 3114 3109 3103 3097 3091 3086 3080 3074 3068 3060 3054 3046 3039 3032 3024 3016
3131 3132 3134 3137 3138 3139 3139 3138 3139 3139 3139 3139 3142 3143 3146 3148 3149 3148 3147 3146 3144 3142 3139 3135 3132 3128 3122 3118 3113 3107 3102 3096 3091 3085 3080 3073 3066 3060 3053 3046 3038 3031 3023 3015
3130 3134 3135 3138 3138 3138 3140 3140 3139 3140 3140 3140 3142 3145 3147 3148 3148 3148 3147 3145 3141 3139 3137 3134 3131 3126 3121 3117 3111 3107 3101 3096 3090 3085 3079 3073 3067 3060 3053 3045 3038 3030 3022 3014
3130 3132 3135 3138 3139 3139 3142 3141 3141 3141 3142 3142 3143 3145 3145 3147 3147 3145 3144 3143 3142 3141 3138 3135 3130 3126 3121 3116 3111 3106 3100 3095 3090 3084 3079 3073 3067 3060 3053 3046 3038 3030 3021 3013
3128 3131 3134 3138 3139 3142 3142 3141 3141 3142 3143 3145 3145 3146 3146 3146 3146 3146 3145 3145 3143 3141 3137 3133 3129 3125 3120 3115 3110 3104 3099 3094 3089 3084 3079 3074 3068 3061 3054 3047 3039 3030 3021 3011
3128 3130 3133 3136 3138 3142 3142 3140 3141 3141 3144 3145 3145 3146 3146 3147 3147 3147 3145 3144 3142 3139 3136 3133 3129 3125 3120 3114 3108 3103 3099 3095 3090 3085 3080 3074 3068 3062 3055 3048 3039 3031 3022 3013
3127 3130 3133 3135 3137 3139 3138 3140 3140 3141 3144 3145 3146 3147 3148 3147 3147 3146 3144 3142 3140 3138 3136 3132 3129 3124 3118 3113 3108 3104 3099 3095 3090 3085 3080 3075 3069 3063 3056 3049 3041 3033 3024 3015
3126 3127 3130 3132 3134 3136 3137 3139 3140 3143 3146 3143 3146 3147 3147 3146 3146 3144 3143 3141 3140 3138 3135 3132 3128 3123 3118 3113 3108 3103 3099 3095 3091 3086 3081 3076 3070 3064 3058 3050 3043 3036 3028 3019
3123 3126 3129 3131 3133 3136 3137 3139 3141 3142 3140 3142 3144 3145 3144 3144 3143 3143 3142 3140 3140 3138 3135 3131 3126 3122 3118 3112 3108 3104 3100 3096 3091 3087 3082 3077 3072 3066 3059 3053 3046 3038 3030 3022
3122 3124 3127 3130 3131 3132 3136 3139 3140 3140 3141 3142 3143 3143 3143 3142 3142 3141 3141 3140 3139 3138 3134 3130 3127 3122 3117 3113 3109 3105 3101 3097 3093 3088 3083 3078 3073 3067 3061 3055 3047 3039 3031 3023
3121 3123 3125 3129 3130 3133 3136 3137 3138 3139 3141 3142 3142 3142 3142 3142 3141 3141 3141 3140 3140 3137 3134 3132 3128 3123 3118 3113 3109 3106 3102 3098 3094 3089 3085 3080 3075 3069 3063 3056 3048 3040 3032 3024
3120 3122 3122 3126 3128 3132 3134 3136 3137 3139 3140 3141 3141 3141 3141 3141 3141 3141 3141 3141 3139 3137 3135 3132 3128 3123 3119 3114 3110 3107 3103 3099 3095 3091 3086 3081 3076 3070 3064 3057 3050 3042 3034 3026
3117 3119 3122 3124 3128 3130 3133 3134 3137 3138 3139 3140 3140 3140 3141 3141 3141 3141 3141 3141 3140 3138 3135 3132 3128 3124 3120 3116 3112 3108 3104 3100 3096 3092 3088 3083 3077 3072 3067 3060 3053 3045 3038 3030